Location: Unspecified
(40.9447°N, 78.9903°W)
Time: 11:21:46
(UTC-04:00)

Resurs 1-4 Rocket - Pass Details

Date: 29 July 2021
Orbit: 799 x 815 km, 98.6° (Epoch: 23 September)

Event Time Altitude Azimuth Distance (km) Brightness Sun altitude
Rises 01:17:44 0° 36° (NE) 3,336 6.0 -30.4°
Reaches altitude 10° 01:21:56 10° 69° (ENE) 2,394 4.8 -30.4°
Enters shadow 01:23:24 12° 85° (E) 2,280 4.5 -30.4°
